Regional Weather Roundup
Issued by NWS Goodland, KS

Home | Current Version | Previous Version | Graphics & Text | Print | Product List | Glossary On
Versions: 1 2 3 4 5 6 7 8 9 10 11 12 13 14 15 16 17 18 19 20 21 22 23 24 25 26 27 28 29 30 31 32 33 34 35 36 37 38 39 40 41 42 43 44 45 46 47 48 49 50
000
ASUS43 KGLD 292259
RWRGLD

GOODLAND FORECAST AREA HOURLY WEATHER ROUNDUP
NATIONAL WEATHER SERVICE GOODLAND KS
500 PM MDT FRI APR 29 2016

...OFFICIAL OBSERVATIONS...

CITY           SKY/WX    TMP DP  RH WIND       PRES   REMARKS
GOODLAND KS    SNOW      32  32 100 NW8       29.88R VSB 1/2
HILL CITY KS   CLOUDY    45  42  89 NE22G28   29.79F
IMPERIAL NEB   LGT RAIN  39  37  92 N18       29.89S FOG
MCCOOK NEB     CLOUDY    43  38  82 NE23      29.84F
AKRON CO       HVY SNOW  32  30  92 NE7       29.90F VSB 1/4
BURLINGTON CO  SNOW      33  31  92 NW8       29.88S VSB 1/2
LIMON CO       LGT SNOW  32  31  96 N10       29.86F VSB 1
$$

...UNOFFICIAL OBSERVATIONS...

CITY           SKY/WX    TMP DP  RH WIND       PRES   REMARKS
COLBY KS       RAIN      39  39 100 N8        29.87R
GOVE KS          N/A     43  32  65 MISG        N/A
LENORA KS        N/A     43  32  65 MISG        N/A
NORTON KS      CLOUDY    43  36  75 NE20G25   29.80F
SHARON SPRINGS   N/A     33  31  93 NW6         N/A
KIT CARSON CO    N/A     32  30  92 MISG        N/A
YUMA CO          N/A     33  31  93 CALM        N/A
$$



USA.gov is the U.S. government's official web portal to all federal, state and local government web resources and services.